Date String (YYYY-MM-DD hh:mm:ss) UTC,Instrument flags,Ambient pressure (hPa),Sample flow (lpm),Bypass flow (lpm),Sample temperature (°C),Ambient temperature (°C),ASC tube jacket temperature (°C),LED temperature (°C),Box temperature (°C),Sample RH (%),Span deviation,Mass concentration (μg/m³),Mass concentration (μg/m³),Mass concentration (μg/m³)
DateTimeUTC,F1_M11,P_M11,Q1_M11,Q2_M11,T1_M11,T2_M11,T3_M11,T4_M11,T5_M11,U1_M11,ZSPAN_M11,X0_M11,X2_M11,X1_M11
2022-06-19 12:00:00,,0823.8,5.00,0.00,29.6,28.2,00.0,38.4,31.4,23.5,0000.0,0005.38,0003.07,0002.00
2022-06-19 12:01:00,,0823.8,5.00,0.00,29.6,28.3,00.0,38.4,31.5,23.6,0000.0,0005.50,0003.08,0002.02
2022-06-19 12:02:00,,0823.9,5.00,0.00,29.6,28.4,00.0,38.4,31.5,23.7,0000.0,0005.47,0003.09,0002.02
2022-06-19 12:03:00,,0823.9,5.01,0.00,29.6,28.5,00.0,38.4,31.5,23.7,0000.0,0005.62,0003.12,0002.03
2022-06-19 12:04:00,,0823.9,5.00,0.00,29.6,28.5,00.0,38.4,31.5,23.7,0000.0,0005.74,0003.15,0002.04
2022-06-19 12:05:00,,0823.9,5.00,0.00,29.7,28.6,00.0,38.5,31.5,23.6,0000.0,0005.84,0003.18,0002.05
2022-06-19 12:06:00,,0823.9,5.00,0.00,29.7,28.6,00.0,38.5,31.6,23.6,0000.0,0005.95,0003.19,0002.05
2022-06-19 12:07:00,,0823.9,5.00,0.00,29.7,28.7,00.0,38.5,31.6,23.6,0000.0,0006.41,0003.27,0002.06
2022-06-19 12:08:00,,0823.9,5.00,0.00,29.7,28.7,00.0,38.5,31.6,23.5,0000.0,0006.55,0003.30,0002.08
2022-06-19 12:09:00,,0824.0,5.00,0.00,29.7,28.8,00.0,38.5,31.7,23.4,0000.0,0006.83,0003.35,0002.09
2022-06-19 12:10:00,,0824.0,5.01,0.00,29.8,28.8,00.0,38.5,31.7,23.4,0000.0,0006.93,0003.37,0002.08
2022-06-19 12:11:00,,0824.0,5.01,0.00,29.8,28.8,00.0,38.5,31.7,23.4,0000.0,0006.94,0003.40,0002.07
2022-06-19 12:12:00,,0823.9,5.00,0.00,29.8,28.9,00.0,38.5,31.7,23.4,0000.0,0006.76,0003.38,0002.06
2022-06-19 12:13:00,,0823.9,5.00,0.00,29.8,28.9,00.0,38.6,31.7,23.3,0000.0,0006.62,0003.35,0002.05
2022-06-19 12:14:00,,0824.0,4.99,0.00,29.8,28.9,00.0,38.6,31.8,23.3,0000.0,0006.54,0003.30,0002.04
2022-06-19 12:15:00,,0824.0,4.99,0.00,29.9,29.0,00.0,38.6,31.8,23.3,0000.0,0006.72,0003.29,0002.03
2022-06-19 12:16:00,,0824.0,5.00,0.00,29.9,29.0,00.0,38.6,31.8,23.4,0000.0,0006.57,0003.25,0002.01
2022-06-19 12:17:00,,0823.9,5.00,0.00,29.9,28.9,00.0,38.6,31.8,23.5,0000.0,0006.44,0003.23,0002.01
2022-06-19 12:18:00,,0824.0,5.00,0.00,29.9,28.1,00.0,38.6,31.7,23.7,0000.0,0006.06,0003.15,0002.00
2022-06-19 12:19:00,,0823.9,4.98,0.00,29.8,27.6,00.0,38.5,31.5,23.8,0000.0,0005.72,0003.06,0001.99
2022-06-19 12:20:00,,0824.0,5.00,0.00,29.7,27.5,00.0,38.5,31.4,23.9,0000.0,0005.43,0002.96,0001.97
2022-06-19 12:21:00,,0824.0,5.00,0.00,29.7,27.6,00.0,38.5,31.4,24.1,0000.0,0005.40,0002.96,0001.96
2022-06-19 12:22:00,,0823.9,5.00,0.00,29.6,27.7,00.0,38.5,31.4,24.4,0000.0,0005.43,0002.97,0001.97
2022-06-19 12:23:00,,0824.0,4.99,0.00,29.6,27.8,00.0,38.5,31.4,24.6,0000.0,0005.43,0002.94,0001.96
2022-06-19 12:24:00,,0824.0,4.99,0.00,29.6,27.9,00.0,38.5,31.4,24.7,0000.0,0005.43,0002.94,0001.97
2022-06-19 12:25:00,,0824.0,5.00,0.00,29.6,28.0,00.0,38.5,31.4,24.9,0000.0,0005.36,0002.95,0001.98
2022-06-19 12:26:00,,0824.0,5.00,0.00,29.6,28.1,00.0,38.5,31.4,25.1,0000.0,0005.05,0002.98,0001.99
2022-06-19 12:27:00,,0824.0,5.00,0.00,29.6,28.2,00.0,38.5,31.5,25.2,0000.0,0005.24,0003.04,0002.01
2022-06-19 12:28:00,,0824.0,5.00,0.00,29.6,28.3,00.0,38.5,31.5,25.1,0000.0,0005.41,0003.10,0002.02
2022-06-19 12:29:00,,0824.0,5.00,0.00,29.6,28.4,00.0,38.5,31.5,25.0,0000.0,0005.34,0003.06,0002.00
2022-06-19 12:30:00,,0824.0,5.00,0.00,29.7,28.5,00.0,38.5,31.6,24.9,0000.0,0005.43,0003.10,0002.02
2022-06-19 12:31:00,,0824.1,5.01,0.00,29.7,28.5,00.0,38.5,31.6,24.6,0000.0,0005.45,0003.11,0002.03
2022-06-19 12:32:00,,0824.1,5.01,0.00,29.7,28.6,00.0,38.5,31.6,24.8,0000.0,0005.60,0003.08,0002.03
2022-06-19 12:33:00,,0824.1,4.99,0.00,29.7,28.7,00.0,38.5,31.6,24.7,0000.0,0005.51,0003.04,0002.03
2022-06-19 12:34:00,,0824.0,5.00,0.00,29.7,28.7,00.0,38.5,31.7,24.6,0000.0,0005.40,0003.02,0002.03
2022-06-19 12:35:00,,0824.1,5.00,0.00,29.7,28.7,00.0,38.5,31.7,24.5,0000.0,0005.62,0003.08,0002.03
2022-06-19 12:36:00,,0824.1,4.99,0.00,29.8,28.8,00.0,38.6,31.7,24.4,0000.0,0005.93,0003.13,0002.01
2022-06-19 12:37:00,,0824.1,5.00,0.00,29.8,28.8,00.0,38.6,31.7,24.4,0000.0,0005.95,0003.14,0002.00
2022-06-19 12:38:00,,0824.1,5.00,0.00,29.8,28.9,00.0,38.6,31.8,24.4,0000.0,0005.82,0003.11,0001.99
2022-06-19 12:39:00,,0824.1,5.00,0.00,29.8,28.9,00.0,38.6,31.8,24.4,0000.0,0005.78,0003.09,0001.96
2022-06-19 12:40:00,,0824.1,4.99,0.00,29.9,29.0,00.0,38.6,31.8,24.5,0000.0,0005.75,0003.08,0001.96
2022-06-19 12:41:00,,0824.1,5.00,0.00,29.9,29.0,00.0,38.6,31.8,24.4,0000.0,0005.84,0003.10,0001.96
2022-06-19 12:42:00,,0824.1,5.00,0.00,29.9,28.7,00.0,38.6,31.7,24.3,0000.0,0005.72,0003.07,0001.95
2022-06-19 12:43:00,,0824.1,5.01,0.00,29.8,27.9,00.0,38.6,31.6,24.2,0000.0,0005.53,0003.06,0001.94
2022-06-19 12:44:00,,0824.1,5.00,0.00,29.8,27.6,00.0,38.5,31.5,24.2,0000.0,0005.59,0003.05,0001.95
2022-06-19 12:45:00,,0824.1,4.99,0.00,29.7,27.6,00.0,38.5,31.4,24.3,0000.0,0005.76,0003.09,0001.95
2022-06-19 12:46:00,,0824.1,5.00,0.00,29.7,27.7,00.0,38.5,31.4,24.3,0000.0,0005.97,0003.11,0001.94
2022-06-19 12:47:00,,0824.1,5.00,0.00,29.7,27.8,00.0,38.5,31.4,24.3,0000.0,0006.13,0003.12,0001.95
2022-06-19 12:48:00,,0824.1,5.00,0.00,29.6,27.9,00.0,38.5,31.4,24.3,0000.0,0006.14,0003.12,0001.95
2022-06-19 12:49:00,,0824.1,5.00,0.00,29.6,28.1,00.0,38.5,31.5,24.2,0000.0,0006.02,0003.08,0001.95
2022-06-19 12:50:00,,0824.1,5.00,0.00,29.6,28.2,00.0,38.5,31.5,24.2,0000.0,0005.95,0003.06,0001.95
2022-06-19 12:51:00,,0824.1,5.00,0.00,29.7,28.3,00.0,38.5,31.5,24.2,0000.0,0007.21,0003.07,0001.94
2022-06-19 12:52:00,,0824.1,4.99,0.00,29.7,28.4,00.0,38.5,31.5,24.1,0000.0,0007.75,0003.04,0001.92
2022-06-19 12:53:00,,0824.2,5.00,0.00,29.7,28.5,00.0,38.5,31.6,24.1,0000.0,0007.83,0003.07,0001.93
2022-06-19 12:54:00,,0824.2,5.01,0.00,29.7,28.6,00.0,38.5,31.6,24.2,0000.0,0007.94,0003.10,0001.92
2022-06-19 12:55:00,,0824.1,4.99,0.00,29.7,28.6,00.0,38.5,31.6,24.1,0000.0,0007.92,0003.11,0001.91
2022-06-19 12:56:00,,0824.1,4.99,0.00,29.7,28.7,00.0,38.5,31.7,24.2,0000.0,0008.47,0003.11,0001.90
2022-06-19 12:57:00,,0824.1,5.00,0.00,29.8,28.8,00.0,38.5,31.7,24.2,0000.0,0008.30,0003.06,0001.90
2022-06-19 12:58:00,,0824.1,4.99,0.00,29.8,28.8,00.0,38.6,31.7,24.3,0000.0,0008.05,0002.95,0001.89
2022-06-19 12:59:00,,0824.0,5.01,0.00,29.8,28.9,00.0,38.6,31.7,24.4,0000.0,0008.46,0002.85,0001.87
